This is the latest recevied weather packets stored in our database for station/object SV9TNF-56. If no packets are shown the sender has not sent any weather packets the latest 10 day(s).
| Time | Temp. | Humidity | Pressure | Rain* | Wind** | Luminosity | Snow |
|---|---|---|---|---|---|---|---|
| 1788200575 | 25.56° C | 50% | 1011.5 hPa | 0 mm | 3.58 m/s, 285° | - | - |
| 1788200275 | 25.56° C | 53% | 1011.5 hPa | 0 mm | 5.36 m/s, 132° | - | - |
| 1788199975 | 25.56° C | 54% | 1011.5 hPa | 0 mm | 13.41 m/s, 192° | - | - |
| 1788199675 | 25.56° C | 52% | 1011.2 hPa | 0 mm | 10.28 m/s, 263° | - | - |
| 1788199375 | 25.56° C | 50% | 1011.2 hPa | 0 mm | 13.86 m/s, 252° | - | - |
| 1788199074 | 25.56° C | 53% | 1011.2 hPa | 0 mm | 2.68 m/s, 270° | - | - |
| 1788198775 | 26.11° C | 49% | 1011.2 hPa | 0 mm | 7.15 m/s, 194° | - | - |
| 1788198474 | 26.11° C | 45% | 1010.8 hPa | 0 mm | 13.86 m/s, 164° | - | - |
| 1788198174 | 26.11° C | 48% | 1011.2 hPa | 0 mm | 15.2 m/s, 150° | - | - |
| 1788197874 | 26.11° C | 49% | 1010.8 hPa | 0 mm | 12.96 m/s, 171° | - | - |
| 1788197574 | 26.11° C | 48% | 1010.8 hPa | 0 mm | 12.07 m/s, 144° | - | - |
| 1788197274 | 26.67° C | 46% | 1010.8 hPa | 0 mm | 19.67 m/s, 240° | - | - |
| 1788196974 | 26.67° C | 44% | 1010.8 hPa | 0 mm | 15.2 m/s, 156° | - | - |
| 1788196674 | 26.11° C | 43% | 1010.8 hPa | 0 mm | 13.86 m/s, 272° | - | - |
| 1788196374 | 26.11° C | 45% | 1010.8 hPa | 0 mm | 22.8 m/s, 222° | - | - |
| 1788196073 | 25.56° C | 49% | 1010.8 hPa | 0 mm | 6.26 m/s, 324° | - | - |
| 1788195773 | 25.56° C | 49% | 1010.8 hPa | 0 mm | 6.26 m/s, 186° | - | - |
| 1788195473 | 25.56° C | 55% | 1010.8 hPa | 0 mm | 8.05 m/s, 233° | - | - |
| 1788195173 | 25.56° C | 57% | 1010.8 hPa | 0 mm | 5.81 m/s, 104° | - | - |
| 1788194873 | 26.11° C | 53% | 1010.8 hPa | 0 mm | 16.99 m/s, 102° | - | - |
| 1788194573 | 26.11° C | 48% | 1010.5 hPa | 0 mm | 12.07 m/s, 109° | - | - |
| 1788194273 | 26.11° C | 50% | 1010.8 hPa | 0 mm | 12.52 m/s, 167° | - | - |
| 1788193973 | 26.11° C | 50% | 1010.8 hPa | 0 mm | 14.31 m/s, 251° | - | - |
| 1788193673 | 26.11° C | 50% | 1010.8 hPa | 0 mm | 5.81 m/s, 87° | - | - |
| 1788193373 | 26.11° C | 47% | 1010.8 hPa | 0 mm | 8.05 m/s, 127° | - | - |
* Rain latest hour (hover to see other rain measurements)
** Current wind speed in m/s (hover to see current wind gust speed)